Location: ??????
(55.7522°N, 37.6156°E)
Time: 18:17:34
(UTC+00:00)

Cosmos 540 Rocket - Pass Details

Date: 14 June 2025
Orbit: 736 x 747 km, 74.1° (Epoch: 13 July)

Event Time Altitude Azimuth Distance (km) Brightness Sun altitude
Rises 19:42:16 0° 332° (NNW) 3,200 9.3 -7.7°
Reaches altitude 10° 19:44:42 10° 337° (NNW) 2,271 7.7 -7.8°
Maximum altitude 19:49:45 54° 55° (NE) 904 4.0 -8.1°
Drops below altitude 10° 19:54:44 10° 133° (SE) 2,249 5.4 -8.4°
Enters shadow 19:55:09 - 134° (SE) 2,405 5.5 -8.4°
